Index of /20260503/WXO-DD/model_rdps/10km/00/025
Name Last modified Size Description
Parent Directory -
20260503T00Z_MSC_RDPS_AbsoluteVorticity_IsbL-0250_RLatLon0.09_PT025H.grib2 2026-05-03 02:48 629K
20260503T00Z_MSC_RDPS_AbsoluteVorticity_IsbL-0500_RLatLon0.09_PT025H.grib2 2026-05-03 02:48 577K
20260503T00Z_MSC_RDPS_AbsoluteVorticity_IsbL-0700_RLatLon0.09_PT025H.grib2 2026-05-03 02:48 623K
20260503T00Z_MSC_RDPS_AbsoluteVorticity_IsbL-0850_RLatLon0.09_PT025H.grib2 2026-05-03 02:48 783K
20260503T00Z_MSC_RDPS_AirTemp_AGL-120m_RLatLon0.09_PT025H.grib2 2026-05-03 02:48 384K
20260503T00Z_MSC_RDPS_AirTemp_AGL-2m_RLatLon0.09_PT025H.grib2 2026-05-03 02:48 623K
20260503T00Z_MSC_RDPS_AirTemp_AGL-40m_RLatLon0.09_PT025H.grib2 2026-05-03 02:48 395K
20260503T00Z_MSC_RDPS_AirTemp_AGL-80m_RLatLon0.09_PT025H.grib2 2026-05-03 02:48 388K
20260503T00Z_MSC_RDPS_AirTemp_IsbL-0001_RLatLon0.09_PT025H.grib2 2026-05-03 02:48 260K
20260503T00Z_MSC_RDPS_AirTemp_IsbL-0005_RLatLon0.09_PT025H.grib2 2026-05-03 02:48 286K
20260503T00Z_MSC_RDPS_AirTemp_IsbL-0010_RLatLon0.09_PT025H.grib2 2026-05-03 02:48 297K
20260503T00Z_MSC_RDPS_AirTemp_IsbL-0020_RLatLon0.09_PT025H.grib2 2026-05-03 02:48 313K
20260503T00Z_MSC_RDPS_AirTemp_IsbL-0030_RLatLon0.09_PT025H.grib2 2026-05-03 02:48 338K
20260503T00Z_MSC_RDPS_AirTemp_IsbL-0050_RLatLon0.09_PT025H.grib2 2026-05-03 02:48 315K
20260503T00Z_MSC_RDPS_AirTemp_IsbL-0100_RLatLon0.09_PT025H.grib2 2026-05-03 02:48 428K
20260503T00Z_MSC_RDPS_AirTemp_IsbL-0150_RLatLon0.09_PT025H.grib2 2026-05-03 02:48 423K
20260503T00Z_MSC_RDPS_AirTemp_IsbL-0175_RLatLon0.09_PT025H.grib2 2026-05-03 02:48 413K
20260503T00Z_MSC_RDPS_AirTemp_IsbL-0200_RLatLon0.09_PT025H.grib2 2026-05-03 02:48 418K
20260503T00Z_MSC_RDPS_AirTemp_IsbL-0225_RLatLon0.09_PT025H.grib2 2026-05-03 02:48 425K
20260503T00Z_MSC_RDPS_AirTemp_IsbL-0250_RLatLon0.09_PT025H.grib2 2026-05-03 02:48 432K
20260503T00Z_MSC_RDPS_AirTemp_IsbL-0275_RLatLon0.09_PT025H.grib2 2026-05-03 02:48 409K
20260503T00Z_MSC_RDPS_AirTemp_IsbL-0300_RLatLon0.09_PT025H.grib2 2026-05-03 02:48 412K
20260503T00Z_MSC_RDPS_AirTemp_IsbL-0350_RLatLon0.09_PT025H.grib2 2026-05-03 02:48 426K
20260503T00Z_MSC_RDPS_AirTemp_IsbL-0400_RLatLon0.09_PT025H.grib2 2026-05-03 02:48 430K
20260503T00Z_MSC_RDPS_AirTemp_IsbL-0450_RLatLon0.09_PT025H.grib2 2026-05-03 02:48 405K
20260503T00Z_MSC_RDPS_AirTemp_IsbL-0500_RLatLon0.09_PT025H.grib2 2026-05-03 02:48 417K
20260503T00Z_MSC_RDPS_AirTemp_IsbL-0550_RLatLon0.09_PT025H.grib2 2026-05-03 02:48 433K
20260503T00Z_MSC_RDPS_AirTemp_IsbL-0600_RLatLon0.09_PT025H.grib2 2026-05-03 02:48 450K
20260503T00Z_MSC_RDPS_AirTemp_IsbL-0650_RLatLon0.09_PT025H.grib2 2026-05-03 02:48 464K
20260503T00Z_MSC_RDPS_AirTemp_IsbL-0700_RLatLon0.09_PT025H.grib2 2026-05-03 02:48 487K
20260503T00Z_MSC_RDPS_AirTemp_IsbL-0750_RLatLon0.09_PT025H.grib2 2026-05-03 02:48 408K
20260503T00Z_MSC_RDPS_AirTemp_IsbL-0800_RLatLon0.09_PT025H.grib2 2026-05-03 02:48 448K
20260503T00Z_MSC_RDPS_AirTemp_IsbL-0850_RLatLon0.09_PT025H.grib2 2026-05-03 02:48 493K
20260503T00Z_MSC_RDPS_AirTemp_IsbL-0875_RLatLon0.09_PT025H.grib2 2026-05-03 02:48 512K
20260503T00Z_MSC_RDPS_AirTemp_IsbL-0900_RLatLon0.09_PT025H.grib2 2026-05-03 02:48 520K
20260503T00Z_MSC_RDPS_AirTemp_IsbL-0925_RLatLon0.09_PT025H.grib2 2026-05-03 02:48 514K
20260503T00Z_MSC_RDPS_AirTemp_IsbL-0950_RLatLon0.09_PT025H.grib2 2026-05-03 02:48 515K
20260503T00Z_MSC_RDPS_AirTemp_IsbL-0970_RLatLon0.09_PT025H.grib2 2026-05-03 02:48 510K
20260503T00Z_MSC_RDPS_AirTemp_IsbL-0985_RLatLon0.09_PT025H.grib2 2026-05-03 02:48 502K
20260503T00Z_MSC_RDPS_AirTemp_IsbL-1000_RLatLon0.09_PT025H.grib2 2026-05-03 02:48 488K
20260503T00Z_MSC_RDPS_AirTemp_IsbL-1015_RLatLon0.09_PT025H.grib2 2026-05-03 02:48 486K
20260503T00Z_MSC_RDPS_Albedo_Sfc_RLatLon0.09_PT025H.grib2 2026-05-03 02:48 158K
20260503T00Z_MSC_RDPS_CAPE_Sfc_RLatLon0.09_PT025H.grib2 2026-05-03 02:48 1.7M
20260503T00Z_MSC_RDPS_CIN_Sfc_RLatLon0.09_PT025H.grib2 2026-05-03 02:48 1.2M
20260503T00Z_MSC_RDPS_CloudWater_EAtm_RLatLon0.09_PT025H.grib2 2026-05-03 02:48 223K
20260503T00Z_MSC_RDPS_ConvectivePrecip-Accum_Sfc_RLatLon0.09_PT025H.grib2 2026-05-03 02:48 895K
20260503T00Z_MSC_RDPS_DewPointDepression_AGL-2m_RLatLon0.09_PT025H.grib2 2026-05-03 02:48 412K
20260503T00Z_MSC_RDPS_DewPointDepression_IsbL-0001_RLatLon0.09_PT025H.grib2 2026-05-03 02:48 193
20260503T00Z_MSC_RDPS_DewPointDepression_IsbL-0005_RLatLon0.09_PT025H.grib2 2026-05-03 02:48 193
20260503T00Z_MSC_RDPS_DewPointDepression_IsbL-0010_RLatLon0.09_PT025H.grib2 2026-05-03 02:48 193
20260503T00Z_MSC_RDPS_DewPointDepression_IsbL-0020_RLatLon0.09_PT025H.grib2 2026-05-03 02:48 193
20260503T00Z_MSC_RDPS_DewPointDepression_IsbL-0030_RLatLon0.09_PT025H.grib2 2026-05-03 02:48 193
20260503T00Z_MSC_RDPS_DewPointDepression_IsbL-0050_RLatLon0.09_PT025H.grib2 2026-05-03 02:48 76K
20260503T00Z_MSC_RDPS_DewPointDepression_IsbL-0100_RLatLon0.09_PT025H.grib2 2026-05-03 02:48 120K
20260503T00Z_MSC_RDPS_DewPointDepression_IsbL-0150_RLatLon0.09_PT025H.grib2 2026-05-03 02:48 145K
20260503T00Z_MSC_RDPS_DewPointDepression_IsbL-0175_RLatLon0.09_PT025H.grib2 2026-05-03 02:48 183K
20260503T00Z_MSC_RDPS_DewPointDepression_IsbL-0200_RLatLon0.09_PT025H.grib2 2026-05-03 02:48 224K
20260503T00Z_MSC_RDPS_DewPointDepression_IsbL-0225_RLatLon0.09_PT025H.grib2 2026-05-03 02:48 268K
20260503T00Z_MSC_RDPS_DewPointDepression_IsbL-0250_RLatLon0.09_PT025H.grib2 2026-05-03 02:48 307K
20260503T00Z_MSC_RDPS_DewPointDepression_IsbL-0275_RLatLon0.09_PT025H.grib2 2026-05-03 02:48 315K
20260503T00Z_MSC_RDPS_DewPointDepression_IsbL-0300_RLatLon0.09_PT025H.grib2 2026-05-03 02:48 331K
20260503T00Z_MSC_RDPS_DewPointDepression_IsbL-0350_RLatLon0.09_PT025H.grib2 2026-05-03 02:48 339K
20260503T00Z_MSC_RDPS_DewPointDepression_IsbL-0400_RLatLon0.09_PT025H.grib2 2026-05-03 02:48 346K
20260503T00Z_MSC_RDPS_DewPointDepression_IsbL-0450_RLatLon0.09_PT025H.grib2 2026-05-03 02:48 348K
20260503T00Z_MSC_RDPS_DewPointDepression_IsbL-0500_RLatLon0.09_PT025H.grib2 2026-05-03 02:48 354K
20260503T00Z_MSC_RDPS_DewPointDepression_IsbL-0550_RLatLon0.09_PT025H.grib2 2026-05-03 02:48 364K
20260503T00Z_MSC_RDPS_DewPointDepression_IsbL-0600_RLatLon0.09_PT025H.grib2 2026-05-03 02:48 375K
20260503T00Z_MSC_RDPS_DewPointDepression_IsbL-0650_RLatLon0.09_PT025H.grib2 2026-05-03 02:48 380K
20260503T00Z_MSC_RDPS_DewPointDepression_IsbL-0700_RLatLon0.09_PT025H.grib2 2026-05-03 02:48 391K
20260503T00Z_MSC_RDPS_DewPointDepression_IsbL-0750_RLatLon0.09_PT025H.grib2 2026-05-03 02:48 411K
20260503T00Z_MSC_RDPS_DewPointDepression_IsbL-0800_RLatLon0.09_PT025H.grib2 2026-05-03 02:48 445K
20260503T00Z_MSC_RDPS_DewPointDepression_IsbL-0850_RLatLon0.09_PT025H.grib2 2026-05-03 02:48 472K
20260503T00Z_MSC_RDPS_DewPointDepression_IsbL-0875_RLatLon0.09_PT025H.grib2 2026-05-03 02:48 472K
20260503T00Z_MSC_RDPS_DewPointDepression_IsbL-0900_RLatLon0.09_PT025H.grib2 2026-05-03 02:48 463K
20260503T00Z_MSC_RDPS_DewPointDepression_IsbL-0925_RLatLon0.09_PT025H.grib2 2026-05-03 02:48 450K
20260503T00Z_MSC_RDPS_DewPointDepression_IsbL-0950_RLatLon0.09_PT025H.grib2 2026-05-03 02:48 442K
20260503T00Z_MSC_RDPS_DewPointDepression_IsbL-0970_RLatLon0.09_PT025H.grib2 2026-05-03 02:48 434K
20260503T00Z_MSC_RDPS_DewPointDepression_IsbL-0985_RLatLon0.09_PT025H.grib2 2026-05-03 02:48 428K
20260503T00Z_MSC_RDPS_DewPointDepression_IsbL-1000_RLatLon0.09_PT025H.grib2 2026-05-03 02:48 424K
20260503T00Z_MSC_RDPS_DewPointDepression_IsbL-1015_RLatLon0.09_PT025H.grib2 2026-05-03 02:48 415K
20260503T00Z_MSC_RDPS_DewPoint_AGL-2m_RLatLon0.09_PT025H.grib2 2026-05-03 02:48 308K
20260503T00Z_MSC_RDPS_DownwardLongwaveRadiationFlux-Accum_Sfc_RLatLon0.09_PT025H.grib2 2026-05-03 02:48 440K
20260503T00Z_MSC_RDPS_DownwardShortwaveRadiationFlux-Accum_NTAtm_RLatLon0.09_PT025H.grib2 2026-05-03 02:48 124K
20260503T00Z_MSC_RDPS_DownwardShortwaveRadiationFlux-Accum_Sfc_RLatLon0.09_PT025H.grib2 2026-05-03 02:48 641K
20260503T00Z_MSC_RDPS_FreezingRain-Accum1h_Sfc_RLatLon0.09_PT025H.grib2 2026-05-03 02:48 19K
20260503T00Z_MSC_RDPS_FreezingRain-Accum_Sfc_RLatLon0.09_PT025H.grib2 2026-05-03 02:48 108K
20260503T00Z_MSC_RDPS_GeopotentialHeight_IsbL-0001_RLatLon0.09_PT025H.grib2 2026-05-03 02:48 311K
20260503T00Z_MSC_RDPS_GeopotentialHeight_IsbL-0005_RLatLon0.09_PT025H.grib2 2026-05-03 02:48 334K
20260503T00Z_MSC_RDPS_GeopotentialHeight_IsbL-0010_RLatLon0.09_PT025H.grib2 2026-05-03 02:48 302K
20260503T00Z_MSC_RDPS_GeopotentialHeight_IsbL-0020_RLatLon0.09_PT025H.grib2 2026-05-03 02:48 397K
20260503T00Z_MSC_RDPS_GeopotentialHeight_IsbL-0030_RLatLon0.09_PT025H.grib2 2026-05-03 02:48 400K
20260503T00Z_MSC_RDPS_GeopotentialHeight_IsbL-0050_RLatLon0.09_PT025H.grib2 2026-05-03 02:48 308K
20260503T00Z_MSC_RDPS_GeopotentialHeight_IsbL-0100_RLatLon0.09_PT025H.grib2 2026-05-03 02:48 288K
20260503T00Z_MSC_RDPS_GeopotentialHeight_IsbL-0150_RLatLon0.09_PT025H.grib2 2026-05-03 02:48 230K
20260503T00Z_MSC_RDPS_GeopotentialHeight_IsbL-0175_RLatLon0.09_PT025H.grib2 2026-05-03 02:48 233K
20260503T00Z_MSC_RDPS_GeopotentialHeight_IsbL-0200_RLatLon0.09_PT025H.grib2 2026-05-03 02:48 266K
20260503T00Z_MSC_RDPS_GeopotentialHeight_IsbL-0225_RLatLon0.09_PT025H.grib2 2026-05-03 02:48 267K
20260503T00Z_MSC_RDPS_GeopotentialHeight_IsbL-0250_RLatLon0.09_PT025H.grib2 2026-05-03 02:48 268K
20260503T00Z_MSC_RDPS_GeopotentialHeight_IsbL-0275_RLatLon0.09_PT025H.grib2 2026-05-03 02:48 267K
20260503T00Z_MSC_RDPS_GeopotentialHeight_IsbL-0300_RLatLon0.09_PT025H.grib2 2026-05-03 02:48 237K
20260503T00Z_MSC_RDPS_GeopotentialHeight_IsbL-0350_RLatLon0.09_PT025H.grib2 2026-05-03 02:48 232K
20260503T00Z_MSC_RDPS_GeopotentialHeight_IsbL-0400_RLatLon0.09_PT025H.grib2 2026-05-03 02:48 229K
20260503T00Z_MSC_RDPS_GeopotentialHeight_IsbL-0450_RLatLon0.09_PT025H.grib2 2026-05-03 02:48 299K
20260503T00Z_MSC_RDPS_GeopotentialHeight_IsbL-0500_RLatLon0.09_PT025H.grib2 2026-05-03 02:48 295K
20260503T00Z_MSC_RDPS_GeopotentialHeight_IsbL-0550_RLatLon0.09_PT025H.grib2 2026-05-03 02:48 291K
20260503T00Z_MSC_RDPS_GeopotentialHeight_IsbL-0600_RLatLon0.09_PT025H.grib2 2026-05-03 02:48 286K
20260503T00Z_MSC_RDPS_GeopotentialHeight_IsbL-0650_RLatLon0.09_PT025H.grib2 2026-05-03 02:48 257K
20260503T00Z_MSC_RDPS_GeopotentialHeight_IsbL-0700_RLatLon0.09_PT025H.grib2 2026-05-03 02:48 256K
20260503T00Z_MSC_RDPS_GeopotentialHeight_IsbL-0750_RLatLon0.09_PT025H.grib2 2026-05-03 02:48 258K
20260503T00Z_MSC_RDPS_GeopotentialHeight_IsbL-0800_RLatLon0.09_PT025H.grib2 2026-05-03 02:48 346K
20260503T00Z_MSC_RDPS_GeopotentialHeight_IsbL-0850_RLatLon0.09_PT025H.grib2 2026-05-03 02:48 353K
20260503T00Z_MSC_RDPS_GeopotentialHeight_IsbL-0875_RLatLon0.09_PT025H.grib2 2026-05-03 02:48 355K
20260503T00Z_MSC_RDPS_GeopotentialHeight_IsbL-0900_RLatLon0.09_PT025H.grib2 2026-05-03 02:48 359K
20260503T00Z_MSC_RDPS_GeopotentialHeight_IsbL-0925_RLatLon0.09_PT025H.grib2 2026-05-03 02:48 360K
20260503T00Z_MSC_RDPS_GeopotentialHeight_IsbL-0950_RLatLon0.09_PT025H.grib2 2026-05-03 02:48 364K
20260503T00Z_MSC_RDPS_GeopotentialHeight_IsbL-0970_RLatLon0.09_PT025H.grib2 2026-05-03 02:48 368K
20260503T00Z_MSC_RDPS_GeopotentialHeight_IsbL-0985_RLatLon0.09_PT025H.grib2 2026-05-03 02:48 376K
20260503T00Z_MSC_RDPS_GeopotentialHeight_IsbL-1000_RLatLon0.09_PT025H.grib2 2026-05-03 02:48 296K
20260503T00Z_MSC_RDPS_GeopotentialHeight_IsbL-1015_RLatLon0.09_PT025H.grib2 2026-05-03 02:48 307K
20260503T00Z_MSC_RDPS_Humidex_Sfc_RLatLon0.09_PT025H.grib2 2026-05-03 02:48 2.4M
20260503T00Z_MSC_RDPS_IcePellets-Accum1h_Sfc_RLatLon0.09_PT025H.grib2 2026-05-03 02:48 2.1K
20260503T00Z_MSC_RDPS_IcePellets-Accum_Sfc_RLatLon0.09_PT025H.grib2 2026-05-03 02:48 9.3K
20260503T00Z_MSC_RDPS_KIndex_Sfc_RLatLon0.09_PT025H.grib2 2026-05-03 02:48 2.4M
20260503T00Z_MSC_RDPS_LatentHeatNetFlux_Sfc_RLatLon0.09_PT025H.grib2 2026-05-03 02:48 341K
20260503T00Z_MSC_RDPS_LiftedIndex-MU-VT_IsbL-0500_RLatLon0.09_PT025H.grib2 2026-05-03 02:48 2.4M
20260503T00Z_MSC_RDPS_NetLongwaveRadiationFlux-Accum_Sfc_RLatLon0.09_PT025H.grib2 2026-05-03 02:48 587K
20260503T00Z_MSC_RDPS_NetShortwaveRadiationFlux-Accum_Sfc_RLatLon0.09_PT025H.grib2 2026-05-03 02:48 639K
20260503T00Z_MSC_RDPS_PlanetaryBoundaryLayerHeight_Sfc_RLatLon0.09_PT025H.grib2 2026-05-03 02:48 1.0M
20260503T00Z_MSC_RDPS_Precip-Accum1h_Sfc_RLatLon0.09_PT025H.grib2 2026-05-03 02:48 1.2M
20260503T00Z_MSC_RDPS_Precip-Accum_Sfc_RLatLon0.09_PT025H.grib2 2026-05-03 02:48 1.9M
20260503T00Z_MSC_RDPS_PrecipRate_Sfc_RLatLon0.09_PT025H.grib2 2026-05-03 02:48 172K
20260503T00Z_MSC_RDPS_PrecipType-Instant_Sfc_RLatLon0.09_PT025H.grib2 2026-05-03 02:48 581K
20260503T00Z_MSC_RDPS_Pressure-Trend3h_Sfc_RLatLon0.09_PT025H.grib2 2026-05-03 02:48 1.1M
20260503T00Z_MSC_RDPS_Pressure_MSL_RLatLon0.09_PT025H.grib2 2026-05-03 02:48 324K
20260503T00Z_MSC_RDPS_Pressure_PVU-1.5_RLatLon0.09_PT025H.grib2 2026-05-03 02:48 2.5M
20260503T00Z_MSC_RDPS_Pressure_PVU-1_RLatLon0.09_PT025H.grib2 2026-05-03 02:48 2.4M
20260503T00Z_MSC_RDPS_Pressure_PVU-2_RLatLon0.09_PT025H.grib2 2026-05-03 02:48 2.4M
20260503T00Z_MSC_RDPS_Pressure_Sfc_RLatLon0.09_PT025H.grib2 2026-05-03 02:48 497K
20260503T00Z_MSC_RDPS_RadiativeTemp_Sfc_RLatLon0.09_PT025H.grib2 2026-05-03 02:48 309K
20260503T00Z_MSC_RDPS_Rain-Accum1h_Sfc_RLatLon0.09_PT025H.grib2 2026-05-03 02:48 608K
20260503T00Z_MSC_RDPS_Rain-Accum_Sfc_RLatLon0.09_PT025H.grib2 2026-05-03 02:48 1.5M
20260503T00Z_MSC_RDPS_RelativeHumidity_AGL-2m_RLatLon0.09_PT025H.grib2 2026-05-03 02:48 1.0M
20260503T00Z_MSC_RDPS_RelativeHumidity_IsbL-0010_RLatLon0.09_PT025H.grib2 2026-05-03 02:48 621K
20260503T00Z_MSC_RDPS_RelativeHumidity_IsbL-0020_RLatLon0.09_PT025H.grib2 2026-05-03 02:48 671K
20260503T00Z_MSC_RDPS_RelativeHumidity_IsbL-0030_RLatLon0.09_PT025H.grib2 2026-05-03 02:48 604K
20260503T00Z_MSC_RDPS_RelativeHumidity_IsbL-0050_RLatLon0.09_PT025H.grib2 2026-05-03 02:48 359K
20260503T00Z_MSC_RDPS_RelativeHumidity_IsbL-0100_RLatLon0.09_PT025H.grib2 2026-05-03 02:48 283K
20260503T00Z_MSC_RDPS_RelativeHumidity_IsbL-0150_RLatLon0.09_PT025H.grib2 2026-05-03 02:48 418K
20260503T00Z_MSC_RDPS_RelativeHumidity_IsbL-0175_RLatLon0.09_PT025H.grib2 2026-05-03 02:48 484K
20260503T00Z_MSC_RDPS_RelativeHumidity_IsbL-0200_RLatLon0.09_PT025H.grib2 2026-05-03 02:48 558K
20260503T00Z_MSC_RDPS_RelativeHumidity_IsbL-0225_RLatLon0.09_PT025H.grib2 2026-05-03 02:48 629K
20260503T00Z_MSC_RDPS_RelativeHumidity_IsbL-0250_RLatLon0.09_PT025H.grib2 2026-05-03 02:48 698K
20260503T00Z_MSC_RDPS_RelativeHumidity_IsbL-0275_RLatLon0.09_PT025H.grib2 2026-05-03 02:48 721K
20260503T00Z_MSC_RDPS_RelativeHumidity_IsbL-0300_RLatLon0.09_PT025H.grib2 2026-05-03 02:48 756K
20260503T00Z_MSC_RDPS_RelativeHumidity_IsbL-0350_RLatLon0.09_PT025H.grib2 2026-05-03 02:48 782K
20260503T00Z_MSC_RDPS_RelativeHumidity_IsbL-0400_RLatLon0.09_PT025H.grib2 2026-05-03 02:48 796K
20260503T00Z_MSC_RDPS_RelativeHumidity_IsbL-0450_RLatLon0.09_PT025H.grib2 2026-05-03 02:48 799K
20260503T00Z_MSC_RDPS_RelativeHumidity_IsbL-0500_RLatLon0.09_PT025H.grib2 2026-05-03 02:48 806K
20260503T00Z_MSC_RDPS_RelativeHumidity_IsbL-0550_RLatLon0.09_PT025H.grib2 2026-05-03 02:48 833K
20260503T00Z_MSC_RDPS_RelativeHumidity_IsbL-0600_RLatLon0.09_PT025H.grib2 2026-05-03 02:48 850K
20260503T00Z_MSC_RDPS_RelativeHumidity_IsbL-0650_RLatLon0.09_PT025H.grib2 2026-05-03 02:48 861K
20260503T00Z_MSC_RDPS_RelativeHumidity_IsbL-0700_RLatLon0.09_PT025H.grib2 2026-05-03 02:48 883K
20260503T00Z_MSC_RDPS_RelativeHumidity_IsbL-0750_RLatLon0.09_PT025H.grib2 2026-05-03 02:48 926K
20260503T00Z_MSC_RDPS_RelativeHumidity_IsbL-0800_RLatLon0.09_PT025H.grib2 2026-05-03 02:48 1.0M
20260503T00Z_MSC_RDPS_RelativeHumidity_IsbL-0850_RLatLon0.09_PT025H.grib2 2026-05-03 02:48 1.0M
20260503T00Z_MSC_RDPS_RelativeHumidity_IsbL-0875_RLatLon0.09_PT025H.grib2 2026-05-03 02:48 1.1M
20260503T00Z_MSC_RDPS_RelativeHumidity_IsbL-0900_RLatLon0.09_PT025H.grib2 2026-05-03 02:48 1.1M
20260503T00Z_MSC_RDPS_RelativeHumidity_IsbL-0925_RLatLon0.09_PT025H.grib2 2026-05-03 02:48 1.1M
20260503T00Z_MSC_RDPS_RelativeHumidity_IsbL-0950_RLatLon0.09_PT025H.grib2 2026-05-03 02:48 1.0M
20260503T00Z_MSC_RDPS_RelativeHumidity_IsbL-0970_RLatLon0.09_PT025H.grib2 2026-05-03 02:48 1.0M
20260503T00Z_MSC_RDPS_RelativeHumidity_IsbL-0985_RLatLon0.09_PT025H.grib2 2026-05-03 02:48 1.0M
20260503T00Z_MSC_RDPS_RelativeHumidity_IsbL-1000_RLatLon0.09_PT025H.grib2 2026-05-03 02:48 1.0M
20260503T00Z_MSC_RDPS_RelativeHumidity_IsbL-1015_RLatLon0.09_PT025H.grib2 2026-05-03 02:48 1.0M
20260503T00Z_MSC_RDPS_Runoff-Accum_Sfc_RLatLon0.09_PT025H.grib2 2026-05-03 02:48 53K
20260503T00Z_MSC_RDPS_SWEATIndex_Sfc_RLatLon0.09_PT025H.grib2 2026-05-03 02:48 2.4M
20260503T00Z_MSC_RDPS_SeeingIndex_EAtm_RLatLon0.09_PT025H.grib2 2026-05-03 02:48 1.0M
20260503T00Z_MSC_RDPS_SensibleHeatNetFlux_Sfc_RLatLon0.09_PT025H.grib2 2026-05-03 02:48 301K
20260503T00Z_MSC_RDPS_ShowalterIndex_IsbL-0500_RLatLon0.09_PT025H.grib2 2026-05-03 02:48 2.6M
20260503T00Z_MSC_RDPS_SkyTransparencyIndex_EAtm_RLatLon0.09_PT025H.grib2 2026-05-03 02:48 724K
20260503T00Z_MSC_RDPS_Snow-Accum1h_Sfc_RLatLon0.09_PT025H.grib2 2026-05-03 02:48 435K
20260503T00Z_MSC_RDPS_Snow-Accum_Sfc_RLatLon0.09_PT025H.grib2 2026-05-03 02:48 724K
20260503T00Z_MSC_RDPS_SnowDensity_Sfc_RLatLon0.09_PT025H.grib2 2026-05-03 02:48 167K
20260503T00Z_MSC_RDPS_SnowDepth_Sfc_RLatLon0.09_PT025H.grib2 2026-05-03 02:48 646K
20260503T00Z_MSC_RDPS_SoilTemp_DBS-0to10cm_RLatLon0.09_PT025H.grib2 2026-05-03 02:48 231K
20260503T00Z_MSC_RDPS_SoilTemp_Sfc_RLatLon0.09_PT025H.grib2 2026-05-03 02:48 265K
20260503T00Z_MSC_RDPS_SoilVolumetricIceContent_Sfc_RLatLon0.09_PT025H.grib2 2026-05-03 02:48 156K
20260503T00Z_MSC_RDPS_SoilVolumetricWaterContent_DBS-0to10cm_RLatLon0.09_PT025H.grib2 2026-05-03 02:48 273K
20260503T00Z_MSC_RDPS_SoilVolumetricWaterContent_DBS-0to1cm_RLatLon0.09_PT025H.grib2 2026-05-03 02:48 338K
20260503T00Z_MSC_RDPS_SpecificHumidity_AGL-120m_RLatLon0.09_PT025H.grib2 2026-05-03 02:48 484K
20260503T00Z_MSC_RDPS_SpecificHumidity_AGL-2m_RLatLon0.09_PT025H.grib2 2026-05-03 02:48 657K
20260503T00Z_MSC_RDPS_SpecificHumidity_AGL-40m_RLatLon0.09_PT025H.grib2 2026-05-03 02:48 492K
20260503T00Z_MSC_RDPS_SpecificHumidity_AGL-80m_RLatLon0.09_PT025H.grib2 2026-05-03 02:48 486K
20260503T00Z_MSC_RDPS_SpecificHumidity_IsbL-0001_RLatLon0.09_PT025H.grib2 2026-05-03 02:48 361K
20260503T00Z_MSC_RDPS_SpecificHumidity_IsbL-0005_RLatLon0.09_PT025H.grib2 2026-05-03 02:48 368K
20260503T00Z_MSC_RDPS_SpecificHumidity_IsbL-0010_RLatLon0.09_PT025H.grib2 2026-05-03 02:48 402K
20260503T00Z_MSC_RDPS_SpecificHumidity_IsbL-0020_RLatLon0.09_PT025H.grib2 2026-05-03 02:48 382K
20260503T00Z_MSC_RDPS_SpecificHumidity_IsbL-0030_RLatLon0.09_PT025H.grib2 2026-05-03 02:48 375K
20260503T00Z_MSC_RDPS_SpecificHumidity_IsbL-0050_RLatLon0.09_PT025H.grib2 2026-05-03 02:48 377K
20260503T00Z_MSC_RDPS_SpecificHumidity_IsbL-0100_RLatLon0.09_PT025H.grib2 2026-05-03 02:48 429K
20260503T00Z_MSC_RDPS_SpecificHumidity_IsbL-0150_RLatLon0.09_PT025H.grib2 2026-05-03 02:48 458K
20260503T00Z_MSC_RDPS_SpecificHumidity_IsbL-0175_RLatLon0.09_PT025H.grib2 2026-05-03 02:48 448K
20260503T00Z_MSC_RDPS_SpecificHumidity_IsbL-0200_RLatLon0.09_PT025H.grib2 2026-05-03 02:48 464K
20260503T00Z_MSC_RDPS_SpecificHumidity_IsbL-0225_RLatLon0.09_PT025H.grib2 2026-05-03 02:48 469K
20260503T00Z_MSC_RDPS_SpecificHumidity_IsbL-0250_RLatLon0.09_PT025H.grib2 2026-05-03 02:48 531K
20260503T00Z_MSC_RDPS_SpecificHumidity_IsbL-0275_RLatLon0.09_PT025H.grib2 2026-05-03 02:48 490K
20260503T00Z_MSC_RDPS_SpecificHumidity_IsbL-0300_RLatLon0.09_PT025H.grib2 2026-05-03 02:48 458K
20260503T00Z_MSC_RDPS_SpecificHumidity_IsbL-0350_RLatLon0.09_PT025H.grib2 2026-05-03 02:48 454K
20260503T00Z_MSC_RDPS_SpecificHumidity_IsbL-0400_RLatLon0.09_PT025H.grib2 2026-05-03 02:48 532K
20260503T00Z_MSC_RDPS_SpecificHumidity_IsbL-0450_RLatLon0.09_PT025H.grib2 2026-05-03 02:48 465K
20260503T00Z_MSC_RDPS_SpecificHumidity_IsbL-0500_RLatLon0.09_PT025H.grib2 2026-05-03 02:48 517K
20260503T00Z_MSC_RDPS_SpecificHumidity_IsbL-0550_RLatLon0.09_PT025H.grib2 2026-05-03 02:48 589K
20260503T00Z_MSC_RDPS_SpecificHumidity_IsbL-0600_RLatLon0.09_PT025H.grib2 2026-05-03 02:48 638K
20260503T00Z_MSC_RDPS_SpecificHumidity_IsbL-0650_RLatLon0.09_PT025H.grib2 2026-05-03 02:48 554K
20260503T00Z_MSC_RDPS_SpecificHumidity_IsbL-0700_RLatLon0.09_PT025H.grib2 2026-05-03 02:48 596K
20260503T00Z_MSC_RDPS_SpecificHumidity_IsbL-0750_RLatLon0.09_PT025H.grib2 2026-05-03 02:48 652K
20260503T00Z_MSC_RDPS_SpecificHumidity_IsbL-0800_RLatLon0.09_PT025H.grib2 2026-05-03 02:48 734K
20260503T00Z_MSC_RDPS_SpecificHumidity_IsbL-0850_RLatLon0.09_PT025H.grib2 2026-05-03 02:48 807K
20260503T00Z_MSC_RDPS_SpecificHumidity_IsbL-0875_RLatLon0.09_PT025H.grib2 2026-05-03 02:48 832K
20260503T00Z_MSC_RDPS_SpecificHumidity_IsbL-0900_RLatLon0.09_PT025H.grib2 2026-05-03 02:48 844K
20260503T00Z_MSC_RDPS_SpecificHumidity_IsbL-0925_RLatLon0.09_PT025H.grib2 2026-05-03 02:48 705K
20260503T00Z_MSC_RDPS_SpecificHumidity_IsbL-0950_RLatLon0.09_PT025H.grib2 2026-05-03 02:48 704K
20260503T00Z_MSC_RDPS_SpecificHumidity_IsbL-0970_RLatLon0.09_PT025H.grib2 2026-05-03 02:48 696K
20260503T00Z_MSC_RDPS_SpecificHumidity_IsbL-0985_RLatLon0.09_PT025H.grib2 2026-05-03 02:48 686K
20260503T00Z_MSC_RDPS_SpecificHumidity_IsbL-1000_RLatLon0.09_PT025H.grib2 2026-05-03 02:48 681K
20260503T00Z_MSC_RDPS_SpecificHumidity_IsbL-1015_RLatLon0.09_PT025H.grib2 2026-05-03 02:48 671K
20260503T00Z_MSC_RDPS_SpecificHumidity_Sfc_RLatLon0.09_PT025H.grib2 2026-05-03 02:48 315K
20260503T00Z_MSC_RDPS_StormRelativeHelicity_EtaL-10000_RLatLon0.09_PT025H.grib2 2026-05-03 02:48 1.1M
20260503T00Z_MSC_RDPS_StormSeverityIndex_EtaL-10000_RLatLon0.09_PT025H.grib2 2026-05-03 02:48 1.1M
20260503T00Z_MSC_RDPS_Thickness_IsbL-0850to0700_RLatLon0.09_PT025H.grib2 2026-05-03 02:48 175K
20260503T00Z_MSC_RDPS_Thickness_IsbL-1000to0500_RLatLon0.09_PT025H.grib2 2026-05-03 02:48 194K
20260503T00Z_MSC_RDPS_Thickness_IsbL-1000to0850_RLatLon0.09_PT025H.grib2 2026-05-03 02:48 183K
20260503T00Z_MSC_RDPS_TotalCloudCover_Sfc_RLatLon0.09_PT025H.grib2 2026-05-03 02:48 660K
20260503T00Z_MSC_RDPS_TotalTotalsIndex_Sfc_RLatLon0.09_PT025H.grib2 2026-05-03 02:48 2.4M
20260503T00Z_MSC_RDPS_UVIndex-ClearSky_Sfc_RLatLon0.09_PT025H.grib2 2026-05-03 02:48 145K
20260503T00Z_MSC_RDPS_UVIndex_Sfc_RLatLon0.09_PT025H.grib2 2026-05-03 02:48 321K
20260503T00Z_MSC_RDPS_UpwardLongwaveRadiationFlux_NTAtm_RLatLon0.09_PT025H.grib2 2026-05-03 02:48 496K
20260503T00Z_MSC_RDPS_UpwardShortwaveRadiationFlux_NTAtm_RLatLon0.09_PT025H.grib2 2026-05-03 02:48 291K
20260503T00Z_MSC_RDPS_VerticalVelocity_IsbL-0250_RLatLon0.09_PT025H.grib2 2026-05-03 02:48 559K
20260503T00Z_MSC_RDPS_VerticalVelocity_IsbL-0500_RLatLon0.09_PT025H.grib2 2026-05-03 02:48 547K
20260503T00Z_MSC_RDPS_VerticalVelocity_IsbL-0700_RLatLon0.09_PT025H.grib2 2026-05-03 02:48 598K
20260503T00Z_MSC_RDPS_VerticalVelocity_IsbL-0850_RLatLon0.09_PT025H.grib2 2026-05-03 02:48 699K
20260503T00Z_MSC_RDPS_VerticalWindShear_EtaL-6500_RLatLon0.09_PT025H.grib2 2026-05-03 02:48 1.2M
20260503T00Z_MSC_RDPS_WindChill_Sfc_RLatLon0.09_PT025H.grib2 2026-05-03 02:48 1.1M
20260503T00Z_MSC_RDPS_WindDir_AGL-10m_RLatLon0.09_PT025H.grib2 2026-05-03 02:48 952K
20260503T00Z_MSC_RDPS_WindDir_AGL-120m_RLatLon0.09_PT025H.grib2 2026-05-03 02:48 595K
20260503T00Z_MSC_RDPS_WindDir_AGL-40m_RLatLon0.09_PT025H.grib2 2026-05-03 02:48 622K
20260503T00Z_MSC_RDPS_WindDir_AGL-80m_RLatLon0.09_PT025H.grib2 2026-05-03 02:48 606K
20260503T00Z_MSC_RDPS_WindDir_IsbL-0001_RLatLon0.09_PT025H.grib2 2026-05-03 02:48 293K
20260503T00Z_MSC_RDPS_WindDir_IsbL-0005_RLatLon0.09_PT025H.grib2 2026-05-03 02:48 369K
20260503T00Z_MSC_RDPS_WindDir_IsbL-0010_RLatLon0.09_PT025H.grib2 2026-05-03 02:48 396K
20260503T00Z_MSC_RDPS_WindDir_IsbL-0020_RLatLon0.09_PT025H.grib2 2026-05-03 02:48 434K
20260503T00Z_MSC_RDPS_WindDir_IsbL-0030_RLatLon0.09_PT025H.grib2 2026-05-03 02:48 417K
20260503T00Z_MSC_RDPS_WindDir_IsbL-0050_RLatLon0.09_PT025H.grib2 2026-05-03 02:48 411K
20260503T00Z_MSC_RDPS_WindDir_IsbL-0100_RLatLon0.09_PT025H.grib2 2026-05-03 02:48 411K
20260503T00Z_MSC_RDPS_WindDir_IsbL-0150_RLatLon0.09_PT025H.grib2 2026-05-03 02:48 418K
20260503T00Z_MSC_RDPS_WindDir_IsbL-0175_RLatLon0.09_PT025H.grib2 2026-05-03 02:48 438K
20260503T00Z_MSC_RDPS_WindDir_IsbL-0200_RLatLon0.09_PT025H.grib2 2026-05-03 02:48 454K
20260503T00Z_MSC_RDPS_WindDir_IsbL-0225_RLatLon0.09_PT025H.grib2 2026-05-03 02:48 464K
20260503T00Z_MSC_RDPS_WindDir_IsbL-0250_RLatLon0.09_PT025H.grib2 2026-05-03 02:48 465K
20260503T00Z_MSC_RDPS_WindDir_IsbL-0275_RLatLon0.09_PT025H.grib2 2026-05-03 02:48 482K
20260503T00Z_MSC_RDPS_WindDir_IsbL-0300_RLatLon0.09_PT025H.grib2 2026-05-03 02:48 476K
20260503T00Z_MSC_RDPS_WindDir_IsbL-0350_RLatLon0.09_PT025H.grib2 2026-05-03 02:48 498K
20260503T00Z_MSC_RDPS_WindDir_IsbL-0400_RLatLon0.09_PT025H.grib2 2026-05-03 02:48 524K
20260503T00Z_MSC_RDPS_WindDir_IsbL-0450_RLatLon0.09_PT025H.grib2 2026-05-03 02:48 535K
20260503T00Z_MSC_RDPS_WindDir_IsbL-0500_RLatLon0.09_PT025H.grib2 2026-05-03 02:48 538K
20260503T00Z_MSC_RDPS_WindDir_IsbL-0550_RLatLon0.09_PT025H.grib2 2026-05-03 02:48 550K
20260503T00Z_MSC_RDPS_WindDir_IsbL-0600_RLatLon0.09_PT025H.grib2 2026-05-03 02:48 576K
20260503T00Z_MSC_RDPS_WindDir_IsbL-0650_RLatLon0.09_PT025H.grib2 2026-05-03 02:48 610K
20260503T00Z_MSC_RDPS_WindDir_IsbL-0700_RLatLon0.09_PT025H.grib2 2026-05-03 02:48 651K
20260503T00Z_MSC_RDPS_WindDir_IsbL-0750_RLatLon0.09_PT025H.grib2 2026-05-03 02:48 700K
20260503T00Z_MSC_RDPS_WindDir_IsbL-0800_RLatLon0.09_PT025H.grib2 2026-05-03 02:48 762K
20260503T00Z_MSC_RDPS_WindDir_IsbL-0850_RLatLon0.09_PT025H.grib2 2026-05-03 02:48 845K
20260503T00Z_MSC_RDPS_WindDir_IsbL-0875_RLatLon0.09_PT025H.grib2 2026-05-03 02:48 876K
20260503T00Z_MSC_RDPS_WindDir_IsbL-0900_RLatLon0.09_PT025H.grib2 2026-05-03 02:48 892K
20260503T00Z_MSC_RDPS_WindDir_IsbL-0925_RLatLon0.09_PT025H.grib2 2026-05-03 02:48 901K
20260503T00Z_MSC_RDPS_WindDir_IsbL-0950_RLatLon0.09_PT025H.grib2 2026-05-03 02:48 901K
20260503T00Z_MSC_RDPS_WindDir_IsbL-0970_RLatLon0.09_PT025H.grib2 2026-05-03 02:48 905K
20260503T00Z_MSC_RDPS_WindDir_IsbL-0985_RLatLon0.09_PT025H.grib2 2026-05-03 02:48 916K
20260503T00Z_MSC_RDPS_WindDir_IsbL-1000_RLatLon0.09_PT025H.grib2 2026-05-03 02:48 929K
20260503T00Z_MSC_RDPS_WindDir_IsbL-1015_RLatLon0.09_PT025H.grib2 2026-05-03 02:48 943K
20260503T00Z_MSC_RDPS_WindGust-Max_AGL-10m_RLatLon0.09_PT025H.grib2 2026-05-03 02:48 1.0M
20260503T00Z_MSC_RDPS_WindGust-Min_AGL-10m_RLatLon0.09_PT025H.grib2 2026-05-03 02:48 969K
20260503T00Z_MSC_RDPS_WindGust_AGL-10m_RLatLon0.09_PT025H.grib2 2026-05-03 02:48 1.0M
20260503T00Z_MSC_RDPS_WindSpeed_AGL-10m_RLatLon0.09_PT025H.grib2 2026-05-03 02:48 831K
20260503T00Z_MSC_RDPS_WindSpeed_AGL-120m_RLatLon0.09_PT025H.grib2 2026-05-03 02:48 540K
20260503T00Z_MSC_RDPS_WindSpeed_AGL-40m_RLatLon0.09_PT025H.grib2 2026-05-03 02:48 535K
20260503T00Z_MSC_RDPS_WindSpeed_AGL-80m_RLatLon0.09_PT025H.grib2 2026-05-03 02:48 531K
20260503T00Z_MSC_RDPS_WindSpeed_IsbL-0001_RLatLon0.09_PT025H.grib2 2026-05-03 02:48 251K
20260503T00Z_MSC_RDPS_WindSpeed_IsbL-0005_RLatLon0.09_PT025H.grib2 2026-05-03 02:48 380K
20260503T00Z_MSC_RDPS_WindSpeed_IsbL-0010_RLatLon0.09_PT025H.grib2 2026-05-03 02:48 365K
20260503T00Z_MSC_RDPS_WindSpeed_IsbL-0020_RLatLon0.09_PT025H.grib2 2026-05-03 02:48 322K
20260503T00Z_MSC_RDPS_WindSpeed_IsbL-0030_RLatLon0.09_PT025H.grib2 2026-05-03 02:48 322K
20260503T00Z_MSC_RDPS_WindSpeed_IsbL-0050_RLatLon0.09_PT025H.grib2 2026-05-03 02:48 353K
20260503T00Z_MSC_RDPS_WindSpeed_IsbL-0100_RLatLon0.09_PT025H.grib2 2026-05-03 02:48 481K
20260503T00Z_MSC_RDPS_WindSpeed_IsbL-0150_RLatLon0.09_PT025H.grib2 2026-05-03 02:48 390K
20260503T00Z_MSC_RDPS_WindSpeed_IsbL-0175_RLatLon0.09_PT025H.grib2 2026-05-03 02:48 436K
20260503T00Z_MSC_RDPS_WindSpeed_IsbL-0200_RLatLon0.09_PT025H.grib2 2026-05-03 02:48 450K
20260503T00Z_MSC_RDPS_WindSpeed_IsbL-0225_RLatLon0.09_PT025H.grib2 2026-05-03 02:48 459K
20260503T00Z_MSC_RDPS_WindSpeed_IsbL-0250_RLatLon0.09_PT025H.grib2 2026-05-03 02:48 460K
20260503T00Z_MSC_RDPS_WindSpeed_IsbL-0275_RLatLon0.09_PT025H.grib2 2026-05-03 02:48 476K
20260503T00Z_MSC_RDPS_WindSpeed_IsbL-0300_RLatLon0.09_PT025H.grib2 2026-05-03 02:48 471K
20260503T00Z_MSC_RDPS_WindSpeed_IsbL-0350_RLatLon0.09_PT025H.grib2 2026-05-03 02:48 482K
20260503T00Z_MSC_RDPS_WindSpeed_IsbL-0400_RLatLon0.09_PT025H.grib2 2026-05-03 02:48 468K
20260503T00Z_MSC_RDPS_WindSpeed_IsbL-0450_RLatLon0.09_PT025H.grib2 2026-05-03 02:48 470K
20260503T00Z_MSC_RDPS_WindSpeed_IsbL-0500_RLatLon0.09_PT025H.grib2 2026-05-03 02:48 471K
20260503T00Z_MSC_RDPS_WindSpeed_IsbL-0550_RLatLon0.09_PT025H.grib2 2026-05-03 02:48 472K
20260503T00Z_MSC_RDPS_WindSpeed_IsbL-0600_RLatLon0.09_PT025H.grib2 2026-05-03 02:48 597K
20260503T00Z_MSC_RDPS_WindSpeed_IsbL-0650_RLatLon0.09_PT025H.grib2 2026-05-03 02:48 616K
20260503T00Z_MSC_RDPS_WindSpeed_IsbL-0700_RLatLon0.09_PT025H.grib2 2026-05-03 02:48 681K
20260503T00Z_MSC_RDPS_WindSpeed_IsbL-0750_RLatLon0.09_PT025H.grib2 2026-05-03 02:48 711K
20260503T00Z_MSC_RDPS_WindSpeed_IsbL-0800_RLatLon0.09_PT025H.grib2 2026-05-03 02:48 758K
20260503T00Z_MSC_RDPS_WindSpeed_IsbL-0850_RLatLon0.09_PT025H.grib2 2026-05-03 02:48 770K
20260503T00Z_MSC_RDPS_WindSpeed_IsbL-0875_RLatLon0.09_PT025H.grib2 2026-05-03 02:48 791K
20260503T00Z_MSC_RDPS_WindSpeed_IsbL-0900_RLatLon0.09_PT025H.grib2 2026-05-03 02:48 850K
20260503T00Z_MSC_RDPS_WindSpeed_IsbL-0925_RLatLon0.09_PT025H.grib2 2026-05-03 02:48 861K
20260503T00Z_MSC_RDPS_WindSpeed_IsbL-0950_RLatLon0.09_PT025H.grib2 2026-05-03 02:48 860K
20260503T00Z_MSC_RDPS_WindSpeed_IsbL-0970_RLatLon0.09_PT025H.grib2 2026-05-03 02:48 860K
20260503T00Z_MSC_RDPS_WindSpeed_IsbL-0985_RLatLon0.09_PT025H.grib2 2026-05-03 02:48 852K
20260503T00Z_MSC_RDPS_WindSpeed_IsbL-1000_RLatLon0.09_PT025H.grib2 2026-05-03 02:48 843K
20260503T00Z_MSC_RDPS_WindSpeed_IsbL-1015_RLatLon0.09_PT025H.grib2 2026-05-03 02:48 832K
20260503T00Z_MSC_RDPS_WindU_AGL-10m_RLatLon0.09_PT025H.grib2 2026-05-03 02:48 427K
20260503T00Z_MSC_RDPS_WindU_AGL-120m_RLatLon0.09_PT025H.grib2 2026-05-03 02:48 412K
20260503T00Z_MSC_RDPS_WindU_AGL-40m_RLatLon0.09_PT025H.grib2 2026-05-03 02:48 531K
20260503T00Z_MSC_RDPS_WindU_AGL-80m_RLatLon0.09_PT025H.grib2 2026-05-03 02:48 413K
20260503T00Z_MSC_RDPS_WindU_IsbL-0001_RLatLon0.09_PT025H.grib2 2026-05-03 02:48 293K
20260503T00Z_MSC_RDPS_WindU_IsbL-0005_RLatLon0.09_PT025H.grib2 2026-05-03 02:48 282K
20260503T00Z_MSC_RDPS_WindU_IsbL-0010_RLatLon0.09_PT025H.grib2 2026-05-03 02:48 296K
20260503T00Z_MSC_RDPS_WindU_IsbL-0020_RLatLon0.09_PT025H.grib2 2026-05-03 02:48 353K
20260503T00Z_MSC_RDPS_WindU_IsbL-0030_RLatLon0.09_PT025H.grib2 2026-05-03 02:48 353K
20260503T00Z_MSC_RDPS_WindU_IsbL-0050_RLatLon0.09_PT025H.grib2 2026-05-03 02:48 381K
20260503T00Z_MSC_RDPS_WindU_IsbL-0100_RLatLon0.09_PT025H.grib2 2026-05-03 02:48 436K
20260503T00Z_MSC_RDPS_WindU_IsbL-0150_RLatLon0.09_PT025H.grib2 2026-05-03 02:48 403K
20260503T00Z_MSC_RDPS_WindU_IsbL-0175_RLatLon0.09_PT025H.grib2 2026-05-03 02:48 330K
20260503T00Z_MSC_RDPS_WindU_IsbL-0200_RLatLon0.09_PT025H.grib2 2026-05-03 02:48 342K
20260503T00Z_MSC_RDPS_WindU_IsbL-0225_RLatLon0.09_PT025H.grib2 2026-05-03 02:48 349K
20260503T00Z_MSC_RDPS_WindU_IsbL-0250_RLatLon0.09_PT025H.grib2 2026-05-03 02:48 349K
20260503T00Z_MSC_RDPS_WindU_IsbL-0275_RLatLon0.09_PT025H.grib2 2026-05-03 02:48 363K
20260503T00Z_MSC_RDPS_WindU_IsbL-0300_RLatLon0.09_PT025H.grib2 2026-05-03 02:48 458K
20260503T00Z_MSC_RDPS_WindU_IsbL-0350_RLatLon0.09_PT025H.grib2 2026-05-03 02:48 468K
20260503T00Z_MSC_RDPS_WindU_IsbL-0400_RLatLon0.09_PT025H.grib2 2026-05-03 02:48 472K
20260503T00Z_MSC_RDPS_WindU_IsbL-0450_RLatLon0.09_PT025H.grib2 2026-05-03 02:48 475K
20260503T00Z_MSC_RDPS_WindU_IsbL-0500_RLatLon0.09_PT025H.grib2 2026-05-03 02:48 476K
20260503T00Z_MSC_RDPS_WindU_IsbL-0550_RLatLon0.09_PT025H.grib2 2026-05-03 02:48 460K
20260503T00Z_MSC_RDPS_WindU_IsbL-0600_RLatLon0.09_PT025H.grib2 2026-05-03 02:48 468K
20260503T00Z_MSC_RDPS_WindU_IsbL-0650_RLatLon0.09_PT025H.grib2 2026-05-03 02:48 485K
20260503T00Z_MSC_RDPS_WindU_IsbL-0700_RLatLon0.09_PT025H.grib2 2026-05-03 02:48 506K
20260503T00Z_MSC_RDPS_WindU_IsbL-0750_RLatLon0.09_PT025H.grib2 2026-05-03 02:48 532K
20260503T00Z_MSC_RDPS_WindU_IsbL-0800_RLatLon0.09_PT025H.grib2 2026-05-03 02:48 571K
20260503T00Z_MSC_RDPS_WindU_IsbL-0850_RLatLon0.09_PT025H.grib2 2026-05-03 02:48 631K
20260503T00Z_MSC_RDPS_WindU_IsbL-0875_RLatLon0.09_PT025H.grib2 2026-05-03 02:48 648K
20260503T00Z_MSC_RDPS_WindU_IsbL-0900_RLatLon0.09_PT025H.grib2 2026-05-03 02:48 657K
20260503T00Z_MSC_RDPS_WindU_IsbL-0925_RLatLon0.09_PT025H.grib2 2026-05-03 02:48 656K
20260503T00Z_MSC_RDPS_WindU_IsbL-0950_RLatLon0.09_PT025H.grib2 2026-05-03 02:48 653K
20260503T00Z_MSC_RDPS_WindU_IsbL-0970_RLatLon0.09_PT025H.grib2 2026-05-03 02:48 650K
20260503T00Z_MSC_RDPS_WindU_IsbL-0985_RLatLon0.09_PT025H.grib2 2026-05-03 02:48 786K
20260503T00Z_MSC_RDPS_WindU_IsbL-1000_RLatLon0.09_PT025H.grib2 2026-05-03 02:48 779K
20260503T00Z_MSC_RDPS_WindU_IsbL-1015_RLatLon0.09_PT025H.grib2 2026-05-03 02:48 771K
20260503T00Z_MSC_RDPS_WindV_AGL-10m_RLatLon0.09_PT025H.grib2 2026-05-03 02:48 428K
20260503T00Z_MSC_RDPS_WindV_AGL-120m_RLatLon0.09_PT025H.grib2 2026-05-03 02:48 412K
20260503T00Z_MSC_RDPS_WindV_AGL-40m_RLatLon0.09_PT025H.grib2 2026-05-03 02:48 416K
20260503T00Z_MSC_RDPS_WindV_AGL-80m_RLatLon0.09_PT025H.grib2 2026-05-03 02:48 414K
20260503T00Z_MSC_RDPS_WindV_IsbL-0001_RLatLon0.09_PT025H.grib2 2026-05-03 02:48 245K
20260503T00Z_MSC_RDPS_WindV_IsbL-0005_RLatLon0.09_PT025H.grib2 2026-05-03 02:48 285K
20260503T00Z_MSC_RDPS_WindV_IsbL-0010_RLatLon0.09_PT025H.grib2 2026-05-03 02:48 298K
20260503T00Z_MSC_RDPS_WindV_IsbL-0020_RLatLon0.09_PT025H.grib2 2026-05-03 02:48 316K
20260503T00Z_MSC_RDPS_WindV_IsbL-0030_RLatLon0.09_PT025H.grib2 2026-05-03 02:48 316K
20260503T00Z_MSC_RDPS_WindV_IsbL-0050_RLatLon0.09_PT025H.grib2 2026-05-03 02:48 345K
20260503T00Z_MSC_RDPS_WindV_IsbL-0100_RLatLon0.09_PT025H.grib2 2026-05-03 02:48 337K
20260503T00Z_MSC_RDPS_WindV_IsbL-0150_RLatLon0.09_PT025H.grib2 2026-05-03 02:48 404K
20260503T00Z_MSC_RDPS_WindV_IsbL-0175_RLatLon0.09_PT025H.grib2 2026-05-03 02:48 331K
20260503T00Z_MSC_RDPS_WindV_IsbL-0200_RLatLon0.09_PT025H.grib2 2026-05-03 02:48 343K
20260503T00Z_MSC_RDPS_WindV_IsbL-0225_RLatLon0.09_PT025H.grib2 2026-05-03 02:48 374K
20260503T00Z_MSC_RDPS_WindV_IsbL-0250_RLatLon0.09_PT025H.grib2 2026-05-03 02:48 375K
20260503T00Z_MSC_RDPS_WindV_IsbL-0275_RLatLon0.09_PT025H.grib2 2026-05-03 02:48 387K
20260503T00Z_MSC_RDPS_WindV_IsbL-0300_RLatLon0.09_PT025H.grib2 2026-05-03 02:48 381K
20260503T00Z_MSC_RDPS_WindV_IsbL-0350_RLatLon0.09_PT025H.grib2 2026-05-03 02:48 362K
20260503T00Z_MSC_RDPS_WindV_IsbL-0400_RLatLon0.09_PT025H.grib2 2026-05-03 02:48 367K
20260503T00Z_MSC_RDPS_WindV_IsbL-0450_RLatLon0.09_PT025H.grib2 2026-05-03 02:48 370K
20260503T00Z_MSC_RDPS_WindV_IsbL-0500_RLatLon0.09_PT025H.grib2 2026-05-03 02:48 371K
20260503T00Z_MSC_RDPS_WindV_IsbL-0550_RLatLon0.09_PT025H.grib2 2026-05-03 02:48 476K
20260503T00Z_MSC_RDPS_WindV_IsbL-0600_RLatLon0.09_PT025H.grib2 2026-05-03 02:48 483K
20260503T00Z_MSC_RDPS_WindV_IsbL-0650_RLatLon0.09_PT025H.grib2 2026-05-03 02:48 500K
20260503T00Z_MSC_RDPS_WindV_IsbL-0700_RLatLon0.09_PT025H.grib2 2026-05-03 02:48 519K
20260503T00Z_MSC_RDPS_WindV_IsbL-0750_RLatLon0.09_PT025H.grib2 2026-05-03 02:48 543K
20260503T00Z_MSC_RDPS_WindV_IsbL-0800_RLatLon0.09_PT025H.grib2 2026-05-03 02:48 580K
20260503T00Z_MSC_RDPS_WindV_IsbL-0850_RLatLon0.09_PT025H.grib2 2026-05-03 02:48 628K
20260503T00Z_MSC_RDPS_WindV_IsbL-0875_RLatLon0.09_PT025H.grib2 2026-05-03 02:48 646K
20260503T00Z_MSC_RDPS_WindV_IsbL-0900_RLatLon0.09_PT025H.grib2 2026-05-03 02:48 655K
20260503T00Z_MSC_RDPS_WindV_IsbL-0925_RLatLon0.09_PT025H.grib2 2026-05-03 02:48 656K
20260503T00Z_MSC_RDPS_WindV_IsbL-0950_RLatLon0.09_PT025H.grib2 2026-05-03 02:48 653K
20260503T00Z_MSC_RDPS_WindV_IsbL-0970_RLatLon0.09_PT025H.grib2 2026-05-03 02:48 650K
20260503T00Z_MSC_RDPS_WindV_IsbL-0985_RLatLon0.09_PT025H.grib2 2026-05-03 02:48 647K
20260503T00Z_MSC_RDPS_WindV_IsbL-1000_RLatLon0.09_PT025H.grib2 2026-05-03 02:48 779K
20260503T00Z_MSC_RDPS_WindV_IsbL-1015_RLatLon0.09_PT025H.grib2 2026-05-03 02:48 771K